COSMOS 2251 DEB, 35824

Orbit data source: Space-Track

COSMOS 2251 DEB, 35824 is space debris in LEO originally from a launch on Wed, 16 Jun 1993 UTC launched from the Plesetsk Missile And Space Complex (PKMTR). The debris from Iridium 33, an American commercial communications satellite, has been tracked extensively since its accidental collision with the defunct Russian satellite Cosmos 2251 in 2009. This event, occurring at high speed in low Earth orbit (LEO), generated thousands of pieces of space debris, significantly increasing the risk of further collisions. The Iridium 33 debris cloud has impacted space traffic management and orbital debris mitigation strategies, making it a subject of ongoing study in space situational awareness.

Loading next visibility...
Identifier
35824, 1993-036ASW
Orbit
LEO
Country
Flag of CISCIS
Related business
Manufacturer
Unknown
Mission
Spacecraft
Bus & Motor
Unknown
Mass
Unknown
Launch date (UTC)
1993-06-16 (33 years ago)
Launch vehicle
Unknown
Launch site
Plesetsk Missile And Space Complex (PKMTR)
Object type
Payload
Rocket body
Debris
Shape & HBR
Unknown shape, 0.1 m
Radar Cross Section
Small (<0.1 m²)

Expand to show TLE details & history
Last TLE update: 8 hours ago

TLE from 8 hours ago
0 COSMOS 2251 DEB
1 35824U 93036ASW 26238.49984960  .00000633  00000-0  41804-3 0  9995
2 35824  73.8450 327.0407 0252921   6.7391 353.7029 13.89250874877920
Epoch: 2026-08-26T11:59Z
TLE epoch observation values (Epoch: 2026-08-26T11:59:47.005Z)
Latitude
-0.00003°
Longitude
172.34288°
Altitude
750.077 km
Speed
7.573 km/s
True Right ascension
21h 48m 09s
True Declination
0° 00' 00"
Sunlit
Object was in full shadow at epoch
Visualization orbit readout
Latitude
Unknown
Longitude
Unknown
Altitude
Unknown
Speed
Unknown
Apparent Right ascension
Unknown
Apparent Declination
Unknown
Sunlit
N/A
Visualization observer readout
Local Sidereal Time
11:14:10
Azimuth
Unknown
Elevation
Unknown
Doppler factor
Unknown
Orbital elements
Apogee altitude
1,113.759 km
Perigee altitude
744.136 km
Semi-major axis
7,307.084 km
Eccentricity
0.02529
Inclination
73.845°
RAAN
327.0407°
Arg. of periapsis
6.7391°
True anomaly
353.37471°
Mean anomaly
353.7029°
Eccentric anomaly
353.53986°
Mean motion
3.47478 °/min
Orbital period
103.6 mins
BSTAR
0.00041804
Loading maneuver chart data...
Computing Atmospheric mass density...

Documentation

Showing up to 5 results
|